Regional Weather Roundup
Issued by NWS

Home | Current Version | Previous Version | Text Only | Print | Product List | Glossary Off
Versions: 1 2 3 4 5 6 7 8 9 10 11 12 13 14 15 16 17 18 19 20 21 22 23 24 25 26 27 28 29 30 31 32 33 34 35 36 37 38 39 40 41 42 43 44 45 46 47 48 49 50

000
ASUS43 KMPX 040301
RWRMN
WEATHER ROUNDUP FOR MINNESOTA
NATIONAL WEATHER SERVICE TWIN CITIES/CHANHASSEN MN
900 PM CST TUE MAR 03 2015


NOTE: "FAIR" INDICATES FEW OR NO CLOUDS BELOW 12,000 FEET WITH NO
SIGNIFICANT WEATHER AND/OR OBSTRUCTIONS TO VISIBILITY. N/A MEANS
CURRENT SKY AND/OR WEATHER CONDITIONS ARE NOT AVAILABLE.

MNZ060>063-068>070-040400-
   Twin Cities Metro

CITY           SKY/WX    TMP DP  RH WIND       PRES   REMARKS
TWIN CITIES    PTCLDY    11   0  61 W18       29.96R WCI  -7
ST PAUL        PTCLDY    12   4  70 W21       29.97R WCI  -7
CRYSTAL        PTCLDY    11   1  64 W15       29.96R WCI  -5
BLAINE         PTCLDY    12   5  73 W14G24    29.94R WCI  -3
LAKEVILLE      CLEAR      9   1  72 W18G28    29.96R WCI -10
EDEN PRAIRIE   PTCLDY    11  -1  58 NW24G33   29.96R WCI  -9
SOUTH ST PAUL  CLEAR     14   3  63 W10G22    29.96R WCI   1
LAKE ELMO      FAIR      14   5  67 W10G18    29.94R WCI   1
$$
MNZ001>005-007-008-013>017-022>024-027-028-040400-
   Northwest Minnesota

CITY           SKY/WX    TMP DP  RH WIND       PRES   REMARKS
BEMIDJI        PTCLDY    -1  -9  69 W17       29.89R WCI -22
HALLOCK        CLEAR      0  -9  65 NW16      29.96R WCI -21
ROSEAU         PTCLDY     0  -9  65 W9        29.91R WCI -16
WARROAD        CLOUDY     0  -8  71 W12       29.88R WCI -18
THIEF RVR FALL PTCLDY     0  -9  65 W13       29.94S WCI -18
CROOKSTON      PTCLDY     1  -6  71 NW18      30.01R WCI -19
FOSSTON        MOCLDY    -2 -11  65 W15G21    29.94R WCI -22
DETROIT LAKES  CLEAR      3  -6  66 NW17G23   29.97R WCI -17
MOORHEAD       CLEAR      3  -2  78 NW15      30.04R WCI -15
PARK RAPIDS    CLOUDY     3  -3  76 W16       29.90R HAZE    WCI -16
MAHNOMEN       FAIR       1  -7  69 W16       29.95R WCI -19
$$
MNZ006-009>011-018-025>026-040400-
   North Central Minnesota

CITY           SKY/WX    TMP DP  RH WIND       PRES   REMARKS
BAUDETTE       PTCLDY    -1  -6  79 W13       29.84R WCI -19
FLAG ISLAND    PTCLDY    -2  -9  71 NW16      29.85R WCI -23
INTL FALLS     PTCLDY     0  -9  65 W12       29.81R WCI -17
WASKISH        PTCLDY     0  -8  71 W12G23    29.87R WCI -18
BIG FORK       FAIR       1  -8  66 W8G16     29.84R WCI -12
LONGVILLE      CLEAR      1  -6  71 W10G20    29.89R WCI -14
GRAND RAPIDS   PTCLDY     1  -8  66 W14       29.83R WCI -17
CRANE LAKE     CLEAR      1 -11  55 W7        29.82R WCI -11
ORR            CLEAR      1 -11  55 W8        29.77R WCI -12
COOK           CLEAR      1  -8  66 W10       29.80R WCI -14
WALKER         CLOUDY     1  -6  72 NW15G22   29.88S WCI -19
$$
MNZ012-019>021-037-040400-
   Northeast Minnesota

CITY           SKY/WX    TMP DP  RH WIND       PRES   REMARKS
DULUTH         CLEAR      7  -4  60 NW21G30   29.78R WCI -13
ELY            MOCLDY     3  -2  78 NW9G18    29.74R HAZE    WCI -11
HIBBING        CLEAR      3  -9  57 W12G23    29.81R WCI -13
EVELETH        CLEAR      5  -6  61 W14       29.80R WCI -12
DULUTH HARBOR  CLEAR     12   0  57 W20G29    29.86R WCI  -6
TWO HARBORS    FAIR      10   0  61 W13G18    29.76R WCI  -5
SILVER BAY     CLEAR     10  -2  56 W8G16     29.73R WCI  -1
GRAND MARAIS     N/A     12  -1  56 W9G21     29.72R WCI   0
G MARAIS ARPRT PTCLDY     3  -6  66 W10G20    29.60R WCI -12
$$
MNZ029>031-032-039>041-046>048-054>057-064-040400-
   West Central Minnesota

CITY           SKY/WX    TMP DP  RH WIND       PRES   REMARKS
FERGUS FALLS   PTCLDY     1  -8  66 NW14      30.06R WCI -17
WHEATON        CLEAR      3  -6  66 W14       30.08S WCI -15
MORRIS         PTCLDY     3  -2  78 NW15      30.03R WCI -15
ALEXANDRIA     PTCLDY     3  -5  69 NW18G30   29.98R WCI -17
ELBOW LAKE     FAIR       2  -5  70 NW15      30.01R WCI -16
WADENA         CLOUDY     1  -4  78 W15       29.94R HAZE    WCI -18
GLENWOOD       PTCLDY     3  -2  78 W26G33    29.97S WCI -20
APPLETON       CLEAR      7   0  72 NW16      30.07R WCI -11
BENSON         MOCLDY     5   0  78 NW10      30.04R WCI -10
ORTONVILLE     CLEAR      5  -6  61 NW14      30.06S WCI -12
MADISON        CLEAR      7   0  72 NW12      30.07S WCI  -9
WILLMAR        FAIR       9   0  66 W13       30.02R WCI  -7
$$
MNZ033>034-036-042>043-049>051-058-059-040400-
   Central Minnesota

CITY           SKY/WX    TMP DP  RH WIND       PRES   REMARKS
ST CLOUD       CLEAR      7  -2  66 NW17G24   29.96R WCI -12
SAUK CENTRE    MOCLDY     5  -2  74 W13G21    29.97R WCI -12
PAYNESVILLE    PTCLDY     4  -3  74 W14G20    29.99R WCI -14
AITKIN         CLEAR      7  -6  56 W5G20     29.88R WCI  -2
PINE RIVER     MOCLDY     1  -4  78 W7        29.94R WCI -11
BRAINERD       CLOUDY     4  -3  73 W13       29.91R WCI -13
STAPLES        CLEAR      1  -6  71 W15G21    29.93R WCI -18
LITTLE FALLS   CLEAR      5  -4  66 W12G17    29.95R WCI -11
LITCHFIELD     CLEAR      9   3  78 NW12G18   29.99R WCI  -6
BUFFALO        PTCLDY     9   0  67 W13G18    29.99R WCI  -7
MAPLE LAKE     CLEAR     10   2  71 W14G25    29.98R WCI  -7
$$
MNZ037-044-045-052-053-040400-
   East Central Minnesota

CITY           SKY/WX    TMP DP  RH WIND       PRES   REMARKS
PRINCETON      PTCLDY     9   0  66 W15G21    29.94R WCI  -8
MORA           CLEAR     10  -4  52 W15G22    29.92R WCI  -6
RUSH CITY      CLEAR      9  -1  64 W10G17    29.91R WCI  -5
MOOSE LAKE     CLOUDY    10   0  61 NW12G17   29.85R WCI  -4
HINCKLEY       FAIR      10   0  61 W13G20    29.89R WCI  -5
CLOQUET        CLEAR      7  -2  66 W17G30    29.82R WCI -12
MCGREGOR       CLEAR      9  -4  56 NW17G25   29.88R WCI -10
$$
MNZ071>073-080-081-089-090-097-098-040400-
   Southwest Minnesota

CITY           SKY/WX    TMP DP  RH WIND       PRES   REMARKS
MONTEVIDEO     CLEAR      7   3  85 N14       30.06S WCI -10
GRANITE FALLS  CLEAR      7   0  72 W12       30.07R WCI  -8
CANBY          CLEAR      7  -1  71 NW9       30.07S WCI  -7
MARSHALL       CLEAR      7  -2  66 NW12      30.05S WCI  -9
REDWOOD FALLS  PTCLDY     9   0  67 NW16      30.04R WCI  -8
OLIVIA         CLEAR      9   3  78 NW14G20   30.02R WCI  -8
PIPESTONE      PTCLDY     7   1  78 N10       30.01S WCI  -8
WINDOM         PTCLDY    10   1  67 NW17      30.01R WCI  -7
WORTHINGTON    CLEAR      9   1  72 NW15      30.03R WCI  -8
JACKSON        CLEAR     10   3  72 NW14G20   30.02R WCI  -5
TRACY          CLEAR      9   2  75 NW14      30.03R WCI  -8
SLAYTON        PTCLDY     7   0  72 NW15      30.01S WCI -11
$$
MNZ065>067-074>077-082>085-091>093-040400-
   South Central Minnesota

CITY           SKY/WX    TMP DP  RH WIND       PRES   REMARKS
MANKATO        CLEAR     10   1  67 NW20G28   30.00R WCI  -8
NEW ULM        PTCLDY     9   1  72 NW20G28   30.02R WCI -11
ST JAMES       PTCLDY    10   3  72 NW18G26   30.04R WCI  -8
FAIRMONT       CLEAR     10   1  67 W22G28    30.01R WCI  -9
GLENCOE        CLEAR     10   4  76 W20       30.00R WCI  -8
FARIBAULT      PTCLDY    10   3  72 W14G24    29.98R WCI  -5
OWATONNA       CLEAR     10   1  67 NW15G25   29.97R WCI  -6
WASECA         CLEAR     12   5  73 NW23      29.99R WCI  -7
ALBERT LEA     CLEAR     10   3  72 NW15G22   29.98R WCI  -6
$$
MNZ078>079-086>088-094>096-040400-
   Southeast Minnesota

CITY           SKY/WX    TMP DP  RH WIND       PRES   REMARKS
ROCHESTER      MOCLDY    11   5  77 NW24G30   29.91R WCI  -9
RED WING       PTCLDY    16   3  57 W10G17    29.94R WCI   3
STANTON        CLEAR     13   4  67 W13       29.95R WCI  -2
DODGE CENTER   CLOUDY    10   7  85 NW18      29.93R FOG     WCI  -8
WINONA         CLEAR     19  10  68 NW14      29.94R WCI   6
AUSTIN         MOCLDY    10   3  72 NW23G29   29.95R WCI -10
PRESTON        PTCLDY    11   6  80 NW18      29.92R WCI  -7
$$
ABBREVIATIONS USED IN REMARKS
   TC - TEMPERATURES IN CELSIUS
  WCI - WIND CHILL INDEX
   HX - HEAT INDEX
  VSB - VISIBILITY
$$



USA.gov is the U.S. government's official web portal to all federal, state and local government web resources and services.